2014-11-14 00:01:30 r, 20.26m,0000000001Hz,0000689716c,0000001.497s,-002.3C,00002191
2014-11-14 00:11:33 r, 20.20m,0000000001Hz,0000656530c,0000001.425s,-002.3C,00002191
2014-11-14 00:21:30 r, 20.15m,0000000000Hz,0000625266c,0000001.357s,-002.3C,00002191
2014-11-14 00:31:32 r, 20.10m,0000000000Hz,0000597829c,0000001.297s,-002.3C,00002191
2014-11-14 00:41:30 r, 20.06m,0000000001Hz,0000574065c,0000001.246s,-002.3C,00002191
2014-11-14 00:51:34 r, 20.02m,0000000001Hz,0000553792c,0000001.202s,-002.3C,00002191
2014-11-14 01:01:30 r, 19.98m,0000000001Hz,0000533868c,0000001.159s,-002.3C,00002191
2014-11-14 01:11:33 r, 19.94m,0000000001Hz,0000513481c,0000001.114s,-002.3C,00002191
2014-11-14 01:21:31 r, 19.90m,0000000001Hz,0000494590c,0000001.073s,-002.3C,00002191
2014-11-14 01:31:32 r, 19.86m,0000000001Hz,0000476913c,0000001.035s,-002.3C,00002191
2014-11-14 01:41:31 r, 19.83m,0000000001Hz,0000466600c,0000001.013s,-002.3C,00002191
2014-11-14 01:51:32 r, 19.81m,0000000001Hz,0000457007c,0000000.992s,-002.3C,00002191
2014-11-14 02:01:30 r, 19.78m,0000000001Hz,0000444464c,0000000.965s,-002.3C,00002191
2014-11-14 02:11:32 r, 19.76m,0000000002Hz,0000434815c,0000000.944s,-002.6C,00002191
2014-11-14 02:21:30 r, 19.73m,0000000001Hz,0000425372c,0000000.923s,-002.6C,00002191
2014-11-14 02:31:33 r, 19.71m,0000000001Hz,0000417668c,0000000.906s,-002.6C,00002191
2014-11-14 02:41:30 r, 19.68m,0000000001Hz,0000405229c,0000000.879s,-003.0C,00002191
2014-11-14 02:51:33 r, 19.65m,0000000001Hz,0000393650c,0000000.854s,-003.0C,00002191
2014-11-14 03:01:30 r, 19.62m,0000000001Hz,0000381105c,0000000.827s,-003.0C,00002191
2014-11-14 03:11:30 r, 19.58m,0000000001Hz,0000367573c,0000000.798s,-003.0C,00002191
2014-11-14 03:21:30 r, 19.52m,0000000001Hz,0000348331c,0000000.756s,-003.0C,00002191
2014-11-14 03:31:30 r, 19.46m,0000000001Hz,0000332391c,0000000.721s,-003.3C,00002191
2014-11-14 03:41:36 r, 19.43m,0000000002Hz,0000321683c,0000000.698s,-003.3C,00002191
2014-11-14 03:51:30 r, 19.34m,0000000001Hz,0000297739c,0000000.646s,-003.3C,00002191
2014-11-14 04:01:33 r, 19.25m,0000000002Hz,0000273317c,0000000.593s,-003.3C,00002191
2014-11-14 04:11:32 r, 19.28m,0000000002Hz,0000281153c,0000000.610s,-003.3C,00002191
2014-11-14 04:21:30 r, 19.26m,0000000001Hz,0000275536c,0000000.598s,-003.3C,00002191
2014-11-14 04:31:33 r, 19.21m,0000000001Hz,0000264141c,0000000.573s,-003.3C,00002191
2014-11-14 04:41:31 r, 19.13m,0000000002Hz,0000245758c,0000000.533s,-003.3C,00002191
2014-11-14 04:51:36 r, 19.07m,0000000002Hz,0000230454c,0000000.500s,-003.6C,00002191
2014-11-14 05:01:30 r, 18.97m,0000000002Hz,0000211254c,0000000.458s,-003.6C,00002191
2014-11-14 05:11:32 r, 18.90m,0000000003Hz,0000197857c,0000000.429s,-003.6C,00002191
2014-11-14 05:21:30 r, 18.80m,0000000002Hz,0000179542c,0000000.390s,-003.6C,00002191
2014-11-14 05:31:32 r, 18.72m,0000000003Hz,0000167018c,0000000.362s,-003.6C,00002191
2014-11-14 05:41:31 r, 18.81m,0000000002Hz,0000180292c,0000000.391s,-003.6C,00002191
2014-11-14 05:51:31 r, 18.72m,0000000003Hz,0000167898c,0000000.364s,-003.6C,00002191
2014-11-14 06:01:30 r, 18.66m,0000000003Hz,0000158317c,0000000.344s,-003.6C,00002191
2014-11-14 06:11:34 r, 18.54m,0000000004Hz,0000142194c,0000000.309s,-003.6C,00002191
2014-11-14 06:21:32 r, 18.49m,0000000003Hz,0000135245c,0000000.294s,-003.6C,00002191
2014-11-14 06:31:33 r, 17.95m,0000000006Hz,0000083450c,0000000.181s,-003.6C,00002191
2014-11-14 06:41:31 r, 16.85m,0000000015Hz,0000030050c,0000000.065s,-003.6C,00002191
2014-11-14 06:51:31 r, 15.28m,0000000064Hz,0000007135c,0000000.015s,-003.6C,00002191
2014-11-14 07:01:30 r, 13.37m,0000000378Hz,0000000000c,0000000.000s,-003.6C,00002191
2014-11-14 07:11:31 r, 11.35m,0000002454Hz,0000000000c,0000000.000s,-003.9C,00002191
2014-11-14 07:21:30 r, 09.51m,0000013295Hz,0000000000c,0000000.000s,-003.9C,00002191
2014-11-14 07:31:31 r, 08.10m,0000048500Hz,0000000000c,0000000.000s,-003.6C,00002191
2014-11-14 07:41:30 r, 07.12m,0000119950Hz,0000000000c,0000000.000s,-003.9C,00002191
2014-11-14 07:51:33 r, 06.44m,0000224433Hz,0000000000c,0000000.000s,-003.6C,00002191
2014-11-14 08:01:30 r, 05.94m,0000358044Hz,0000000000c,0000000.000s,-003.6C,00002191
2014-11-14 08:11:33 r, 00.00m,0000530251Hz,0000000000c,0000000.000s,-002.6C,00002191
2014-11-14 08:21:30 r, 00.00m,0000597141Hz,0000000000c,0000000.000s,-001.3C,00002191
2014-11-14 08:31:33 r, 00.00m,0000597120Hz,0000000000c,0000000.000s,-000.4C,00002191
2014-11-14 08:41:33 r, 00.00m,0000597024Hz,0000000000c,0000000.000s, 000.6C,00002191
2014-11-14 08:51:31 r, 00.00m,0000596914Hz,0000000000c,0000000.000s, 001.6C,00002191
2014-11-14 09:01:30 r, 00.00m,0000596819Hz,0000000000c,0000000.000s, 002.9C,00002191
2014-11-14 09:11:31 r, 00.00m,0000596772Hz,0000000000c,0000000.000s, 004.1C,00002191
2014-11-14 09:21:30 r, 00.00m,0000596684Hz,0000000000c,0000000.000s, 005.1C,00002191
2014-11-14 09:31:31 r, 00.00m,0000596573Hz,0000000000c,0000000.000s, 006.1C,00002191
2014-11-14 09:41:31 r, 00.00m,0000596653Hz,0000000000c,0000000.000s, 007.0C,00002191
2014-11-14 09:51:30 r, 00.00m,0000596559Hz,0000000000c,0000000.000s, 007.7C,00002191
2014-11-14 10:01:31 r, 00.00m,0000596536Hz,0000000000c,0000000.000s, 008.3C,00002191
2014-11-14 10:11:31 r, 00.00m,0000596328Hz,0000000000c,0000000.000s, 009.0C,00002191
2014-11-14 10:21:30 r, 00.00m,0000596360Hz,0000000000c,0000000.000s, 009.3C,00002191
2014-11-14 10:31:30 r, 00.00m,0000596354Hz,0000000000c,0000000.000s, 009.6C,00002191
2014-11-14 10:41:32 r, 00.00m,0000596238Hz,0000000000c,0000000.000s, 009.9C,00002191
2014-11-14 10:51:30 r, 00.00m,0000596200Hz,0000000000c,0000000.000s, 010.3C,00002191
2014-11-14 11:01:33 r, 00.00m,0000596198Hz,0000000000c,0000000.000s, 010.6C,00002191
2014-11-14 11:11:32 r, 00.00m,0000596142Hz,0000000000c,0000000.000s, 010.9C,00002191
2014-11-14 11:21:32 r, 00.00m,0000596156Hz,0000000000c,0000000.000s, 011.2C,00002191
2014-11-14 11:31:30 r, 00.00m,0000596147Hz,0000000000c,0000000.000s, 011.2C,00002191
2014-11-14 11:41:31 r, 00.00m,0000596024Hz,0000000000c,0000000.000s, 011.9C,00002191
2014-11-14 11:51:34 r, 00.00m,0000596035Hz,0000000000c,0000000.000s, 012.2C,00002191
2014-11-14 12:01:31 r, 00.00m,0000595946Hz,0000000000c,0000000.000s, 012.5C,00002191
2014-11-14 12:11:30 r, 00.00m,0000596053Hz,0000000000c,0000000.000s, 011.9C,00002191
2014-11-14 12:21:32 r, 00.00m,0000596311Hz,0000000000c,0000000.000s, 009.3C,00002191
2014-11-14 12:31:30 r, 00.00m,0000596480Hz,0000000000c,0000000.000s, 007.7C,00002191
2014-11-14 12:41:31 r, 00.00m,0000596551Hz,0000000000c,0000000.000s, 006.7C,00002191
2014-11-14 12:51:31 r, 00.00m,0000596484Hz,0000000000c,0000000.000s, 006.1C,00002191
2014-11-14 13:01:30 r, 00.00m,0000596524Hz,0000000000c,0000000.000s, 006.1C,00002191
2014-11-14 13:11:32 r, 00.00m,0000596531Hz,0000000000c,0000000.000s, 006.1C,00002191
2014-11-14 13:21:31 r, 00.00m,0000596589Hz,0000000000c,0000000.000s, 006.1C,00002191
2014-11-14 13:31:33 r, 00.00m,0000596577Hz,0000000000c,0000000.000s, 006.4C,00002191
2014-11-14 13:41:31 r, 00.00m,0000596511Hz,0000000000c,0000000.000s, 006.4C,00002191
2014-11-14 13:51:32 r, 00.00m,0000596474Hz,0000000000c,0000000.000s, 006.4C,00002191
2014-11-14 14:01:31 r, 00.00m,0000596523Hz,0000000000c,0000000.000s, 006.4C,00002191
2014-11-14 14:11:31 r, 00.00m,0000596473Hz,0000000000c,0000000.000s, 006.7C,00002191
2014-11-14 14:21:30 r, 00.00m,0000596539Hz,0000000000c,0000000.000s, 006.7C,00002191
2014-11-14 14:31:31 r, 00.00m,0000596499Hz,0000000000c,0000000.000s, 006.7C,00002191
2014-11-14 14:41:30 r, 00.00m,0000596496Hz,0000000000c,0000000.000s, 006.7C,00002191
2014-11-14 14:51:31 r, 00.00m,0000596461Hz,0000000000c,0000000.000s, 006.7C,00002191
2014-11-14 15:01:30 r, 00.00m,0000596576Hz,0000000000c,0000000.000s, 007.0C,00002191
2014-11-14 15:11:33 r, 00.00m,0000596376Hz,0000000000c,0000000.000s, 008.3C,00002191
2014-11-14 15:21:30 r, 00.00m,0000596373Hz,0000000000c,0000000.000s, 009.0C,00002191
2014-11-14 15:31:32 r, 00.00m,0000596351Hz,0000000000c,0000000.000s, 009.3C,00002191
2014-11-14 15:41:31 r, 00.00m,0000596412Hz,0000000000c,0000000.000s, 009.3C,00002191
2014-11-14 15:51:31 r, 00.00m,0000596344Hz,0000000000c,0000000.000s, 009.0C,00002191
2014-11-14 16:01:30 r, 00.00m,0000531770Hz,0000000000c,0000000.000s, 008.7C,00002191
2014-11-14 16:11:31 r, 00.00m,0000431278Hz,0000000000c,0000000.000s, 008.3C,00002191
2014-11-14 16:21:31 r, 06.04m,0000323640Hz,0000000000c,0000000.000s, 008.0C,00002191
2014-11-14 16:31:31 r, 06.48m,0000216818Hz,0000000000c,0000000.000s, 007.4C,00002191
2014-11-14 16:41:30 r, 07.11m,0000121655Hz,0000000000c,0000000.000s, 006.7C,00002191
2014-11-14 16:51:33 r, 08.02m,0000052700Hz,0000000000c,0000000.000s, 005.8C,00002191
2014-11-14 17:01:30 r, 09.33m,0000015641Hz,0000000000c,0000000.000s, 004.8C,00002191
2014-11-14 17:11:32 r, 11.12m,0000003017Hz,0000000000c,0000000.000s, 004.1C,00002191
2014-11-14 17:21:30 r, 13.19m,0000000447Hz,0000000000c,0000000.000s, 003.5C,00002191
2014-11-14 17:31:31 r, 15.22m,0000000069Hz,0000006722c,0000000.015s, 002.9C,00002191
2014-11-14 17:41:31 r, 16.91m,0000000015Hz,0000031904c,0000000.069s, 002.5C,00002191
2014-11-14 17:51:31 r, 18.36m,0000000004Hz,0000120714c,0000000.262s, 002.2C,00002191
2014-11-14 18:01:30 r, 19.51m,0000000001Hz,0000347345c,0000000.754s, 002.2C,00002191
2014-11-14 18:11:31 r, 20.17m,0000000001Hz,0000636334c,0000001.381s, 001.9C,00002191
2014-11-14 18:21:31 r, 20.43m,0000000001Hz,0000802502c,0000001.742s, 001.6C,00002191
2014-11-14 18:31:30 r, 20.50m,0000000001Hz,0000861191c,0000001.869s, 001.6C,00002191
2014-11-14 18:41:30 r, 20.52m,0000000001Hz,0000878356c,0000001.906s, 001.2C,00002191
2014-11-14 18:51:32 r, 20.54m,0000000001Hz,0000885999c,0000001.923s, 001.2C,00002191
2014-11-14 19:01:30 r, 20.55m,0000000000Hz,0000893024c,0000001.938s, 000.9C,00002191
2014-11-14 19:11:32 r, 20.56m,0000000000Hz,0000901343c,0000001.956s, 000.9C,00002191
2014-11-14 19:21:32 r, 20.57m,0000000001Hz,0000910032c,0000001.975s, 000.9C,00002191
2014-11-14 19:31:31 r, 20.57m,0000000001Hz,0000915671c,0000001.987s, 000.9C,00002191
2014-11-14 19:41:30 r, 20.58m,0000000000Hz,0000917766c,0000001.992s, 000.9C,00002191
2014-11-14 19:51:31 r, 20.59m,0000000001Hz,0000928359c,0000002.015s, 000.6C,00002191
2014-11-14 20:01:31 r, 20.60m,0000000001Hz,0000935923c,0000002.031s, 000.6C,00002191
2014-11-14 20:11:31 r, 20.60m,0000000000Hz,0000936858c,0000002.033s, 000.6C,00002191
2014-11-14 20:21:31 r, 20.60m,0000000000Hz,0000943009c,0000002.046s, 000.6C,00002191
2014-11-14 20:31:32 r, 20.60m,0000000001Hz,0000941692c,0000002.044s, 000.6C,00002191
2014-11-14 20:41:30 r, 20.61m,0000000001Hz,0000946612c,0000002.054s, 000.9C,00002191
2014-11-14 20:51:33 r, 20.60m,0000000000Hz,0000944296c,0000002.049s, 000.9C,00002191
2014-11-14 21:01:30 r, 20.60m,0000000001Hz,0000938548c,0000002.037s, 000.9C,00002191
2014-11-14 21:11:31 r, 20.59m,0000000001Hz,0000932894c,0000002.025s, 000.6C,00002191
2014-11-14 21:21:31 r, 20.60m,0000000001Hz,0000936209c,0000002.032s, 000.6C,00002191
2014-11-14 21:31:35 r, 20.60m,0000000000Hz,0000943268c,0000002.047s, 000.6C,00002191
2014-11-14 21:41:30 r, 20.60m,0000000001Hz,0000941829c,0000002.044s, 000.6C,00002191
2014-11-14 21:51:31 r, 20.60m,0000000001Hz,0000936908c,0000002.033s, 000.3C,00002191
2014-11-14 22:01:30 r, 20.60m,0000000001Hz,0000939634c,0000002.039s, 000.3C,00002191
2014-11-14 22:11:33 r, 20.60m,0000000000Hz,0000939712c,0000002.039s, 000.1C,00002191
2014-11-14 22:21:30 r, 20.61m,0000000000Hz,0000948367c,0000002.058s, 000.1C,00002191
2014-11-14 22:31:32 r, 20.61m,0000000001Hz,0000946999c,0000002.055s,-000.4C,00002191
2014-11-14 22:41:30 r, 20.62m,0000000001Hz,0000953541c,0000002.069s,-000.4C,00002191
2014-11-14 22:51:31 r, 20.63m,0000000001Hz,0000964162c,0000002.092s,-000.7C,00002191
2014-11-14 23:01:30 r, 20.64m,0000000001Hz,0000971691c,0000002.109s,-000.7C,00002191
2014-11-14 23:11:31 r, 20.64m,0000000001Hz,0000976186c,0000002.118s,-000.7C,00002191
2014-11-14 23:21:30 r, 20.65m,0000000000Hz,0000987417c,0000002.143s,-001.0C,00002191
2014-11-14 23:31:31 r, 20.65m,0000000000Hz,0000986195c,0000002.140s,-001.0C,00002191
2014-11-14 23:41:30 r, 20.65m,0000000001Hz,0000982314c,0000002.132s,-001.3C,00002191
2014-11-14 23:51:34 r, 20.65m,0000000001Hz,0000981725c,0000002.130s,-001.7C,00002191
